Home   Weather   Changsha   Past weeks

Flag for China Past Weather in Changsha, Hunan, China — Yesterday and Last 2 Weeks

Now
63 °F

Light rain. Mostly cloudy.


Feels Like: 63 °F
Forecast: 61 / 65 °F
Wind: 20 mph from North

Location: Changsha

Current Time: Sep 29, 2016 at 1:16:19 PM

Latest Report: Sep 29, 2016 at 12:00 PM


Visibility: N/A

Pressure: 29.86 "Hg

Humidity: 83%

Dew Point: 57 °F

Location of ChangshaLocation

Past Weather in Changsha — Graph

°F

Changsha Temperature Yesterday

Maximum temperature yesterday: 77 °F (at 11:00 AM)
Minimum temperature yesterday: 68 °F (at 10:00 PM)
Average temperature yesterday: 73 °F

High & Low Weather Summary for the Past Weeks

 TemperatureHumidityPressure
High97 °F (Sep 26, 3:00 PM)94% (Sep 17, 4:00 AM)30.12 "Hg (Sep 17, 4:00 AM)
Low61 °F (Sep 29, 8:00 AM)25% (Sep 21, 5:00 PM)29.71 "Hg (Sep 15, 3:00 PM)
Average78 °F64%29.87 "Hg
* Reported Sep 14 12:00 PM — Sep 29 12:00 PM, Changsha, Weather by CustomWeather, © 2016

Note: Actual official high and low records may vary slightly from our data, if they occured in-between our weather recording intervals... More about our weather records

Advertising

Changsha Weather History for the Previous 24 Hours

Scroll right to see more
 ConditionsComfort  
Time TempWeatherWind HumidityBarometerVisibility
12:00 PM
Thu, Sep 29
63 °FLight rain. Mostly cloudy.20 mph83%29.86 "HgN/A
11:00 AM63 °FMostly cloudy.20 mph83%29.89 "HgN/A
10:00 AM61 °FLight rain. Mostly cloudy.20 mph88%29.86 "Hg4 mi
9:00 AM61 °FLight rain. Fog.17 mph94%29.86 "Hg2 mi
8:00 AM61 °FLight rain. Fog.17 mph94%29.86 "Hg1 mi
7:00 AM63 °FDrizzle. Fog.20 mph83%29.83 "Hg2 mi
6:00 AM63 °FLight rain. Fog.22 mph88%29.83 "Hg2 mi
5:00 AM63 °FLight rain. Fog.20 mph88%29.80 "Hg2 mi
4:00 AM63 °FLight rain. Fog.22 mph94%29.80 "Hg3 mi
3:00 AM64 °FLight rain. Mostly cloudy.22 mph88%29.80 "Hg4 mi
2:00 AM64 °FMostly cloudy.22 mph88%29.80 "HgN/A
1:00 AM66 °FMostly cloudy.22 mph83%29.83 "HgN/A
12:00 AM66 °FLight rain. Mostly cloudy.22 mph83%29.83 "HgN/A
11:00 PM
Wed, Sep 28
68 °FMostly cloudy.24 mph73%29.86 "HgN/A
10:00 PM68 °FMostly cloudy.24 mph73%29.86 "HgN/A
9:00 PM70 °FMostly cloudy.17 mph73%29.86 "HgN/A
8:00 PM70 °FMostly cloudy.20 mph73%29.83 "HgN/A
7:00 PM70 °FMostly cloudy.24 mph73%29.80 "HgN/A
6:00 PM72 °FMostly cloudy.24 mph69%29.80 "HgN/A
5:00 PM72 °FMostly cloudy.22 mph69%29.80 "HgN/A
4:00 PM73 °FMostly cloudy.26 mph65%29.77 "Hg6 mi
3:00 PM73 °FMostly cloudy.29 mph69%29.77 "Hg6 mi
2:00 PM73 °FMostly cloudy.26 mph69%29.77 "Hg5 mi
1:00 PM75 °FMostly cloudy.24 mph74%29.80 "Hg5 mi
Weather by CustomWeather, © 2016

See weather overviewHow to use our weather pages